Tracking 25710 objects as of 5-Jul-2022
HD Live streaming from Space Station
objects crossing your sky now

FENGYUN 1C DEB

Track FENGYUN 1C DEB now!
10-day predictions


NORAD ID: 29801
Int'l Code: 1999-025CT
Perigee: 709.2 km
Apogee: 862.3 km
Inclination: 98.9 °
Period: 100.4 minutes
Semi major axis: 7156 km
RCS: 0.105 m2 (medium)
Launch date: May 10, 1999
Source: People's Republic of China (PRC)
Launch site: Taiyaun Space Center, China (TSC)

Note: This is SATELLITE DEBRIS
aabbcc
Your satellite tracking list
Your tracking list is empty




NASA's NSSDC Master Catalog

Two Line Element Set (TLE):
1 29801U 99025CT  22185.59871690  .00000107  00000-0  52635-4 0  9991
2 29801  98.9472  37.4739 0106995   1.7600  65.4496 14.33933119809264
Source of the keplerian elements: AFSPC